SCP
1 1 1 1 1 1 1 1 1 1 2 2 2 2 2 2 1 1 1 0 0 0 0 0 1 1 1 1 1 1 1 1 1 1 1 1 1 1 1 1 1 1 0
2 2 2 2 2 2 2 1 1 1 1 1 1 1 1 1 1 1 1 0 0 1 1 1 1 1 1 1 1 1 1 1 1 1 1 1 1 1 1 1 1 1 1
3 2 2 2 2 2 2 2 2 2 2 1 1 1 1 1 1 1 1 1 1 1 1 1 1 1 1 1 1 1 1 1 1 1 2 1 1 1 1 1 1 1 1
3 2 2 2 2 2 2 2 2 2 2 2 1 1 1 1 1 1 1 1 1 1 1 1 1 1 1 1 1 1 1 1 2 2 2 2 1 1 1 1 1 1 1
3 2 2 2 2 2 2 2 2 3 2 2 2 2 1 1 1 1 2 1 1 1 1 1 1 1 1 1 1 1 1 2 2 2 2 2 2 2 1 1 1 1 1
3 2 2 2 2 1 2 2 2 2 2 2 2 2 2 2 2 2 2 1 2 2 1 1 1 1 1 2 2 2 2 2 2 2 2 2 2 2 2 1 1 1 1
2 2 2 2 2 2 2 2 2 2 2 2 2 2 2 2 2 2 2 1 2 2 2 1 1 1 1 2 2 2 2 2 2 2 2 2 2 2 2 1 1 1 1
1 2 2 2 2 2 2 2 2 2 2 2 2 2 2 2 2 2 2 1 1 2 2 1 1 1 1 2 2 2 2 2 2 2 2 2 2 2 2 2 1 1 1
2 2 2 2 2 2 2 2 2 2 2 2 2 2 2 2 2 2 2 2 1 1 1 1 1 1 1 2 2 2 2 2 2 2 2 2 2 2 2 2 2 1 1
3 3 2 2 2 2 2 2 2 2 2 2 2 2 2 3 3 2 2 2 2 2 1 1 1 1 1 1 1 2 2 2 2 2 2 2 2 2 2 2 2 1 1
3 3 3 2 2 2 2 2 2 2 2 2 2 3 3 3 3 3 3 2 2 2 2 2 2 1 1 1 1 1 1 1 2 2 2 2 2 2 2 2 2 1 1
4 4 4 3 3 3 3 2 2 2 2 3 3 3 3 3 3 3 3 3 3 3 3 3 2 1 1 1 1 1 1 1 1 1 1 1 1 2 2 2 2 2 1
5 5 4 4 4 4 3 3 3 2 3 3 3 4 3 3 3 3 3 4 4 4 4 4 2 1 1 1 1 1 1 1 1 1 1 1 1 1 2 2 2 2 2
5 5 5 5 5 4 4 4 4 3 3 3 4 4 3 3 3 3 4 4 5 6 5 4 2 1 1 1 1 1 1 1 1 1 1 1 1 1 1 2 2 2 2
4 4 5 5 5 5 5 6 6 5 4 4 4 4 4 3 3 4 4 5 5 5 5 3 2 1 1 1 1 1 1 1 0 0 0 0 0 1 1 1 1 1 1
3 4 4 5 6 6 7 8 8 6 5 5 5 6 5 4 4 4 4 4 4 4 3 2 1 1 1 1 0 0 0 0 0 0 0 0 0 0 0 0 1 1 1
4 4 4 5 6 8 8 8 8 7 7 7 8 8 7 5 4 5 5 5 4 4 3 2 1 1 1 1 0 0 1 1 1 0 0 0 0 0 0 0 0 0 0
5 5 5 6 7 8 9 8 8 8 8 9 10 9 8 6 5 5 6 5 5 4 3 2 2 2 1 1 0 0 1 1 1 0 0 0 0 0 0 0 0 0 0
7 6 6 6 7 9 10 9 8 9 9 10 10 9 8 6 5 6 6 6 5 4 3 3 2 2 2 1 0 0 1 1 1 0 0 0 0 0 0 0 0 0 0
8 7 6 6 7 9 10 9 8 9 9 9 9 8 8 7 6 6 7 7 6 5 4 3 3 3 2 1 0 0 1 1 0 0 0 0 0 0 0 0 0 0 0
8 8 9 9 9 10 9 8 8 8 8 8 8 8 8 7 7 7 8 7 6 5 4 4 4 3 2 1 1 0 0 0 0 0 0 0 0 0 0 0 0 0 0
9 11 14 15 12 10 10 9 8 8 8 8 8 7 7 7 7 8 8 8 7 6 6 5 5 4 2 1 1 0 0 0 0 0 0 0 0 0 0 0 0 0 0
11 13 16 16 13 9 9 9 9 8 9 9 8 8 8 8 9 9 9 8 7 7 7 7 5 3 2 1 1 0 0 0 0 0 0 0 0 0 0 0 0 0 0
10 10 11 11 9 7 7 8 8 8 8 9 9 9 9 10 10 11 11 9 6 6 7 7 5 3 2 1 1 1 0 0 0 0 0 0 0 0 0 0 0 0 0
7 7 7 7 7 7 7 8 7 7 7 8 9 9 10 12 12 11 11 8 5 4 4 4 3 2 1 1 1 0 0 0 0 0 0 0 0 0 0 0 0 0 0
5 5 5 6 7 7 8 8 7 7 7 7 9 10 11 13 14 12 9 6 4 3 2 2 2 2 1 0 0 0 0 0 0 0 0 0 0 0 0 0 0 0 0
Wind_Speed
9 9 9 8 7 7 6 6 6 5 4 3 3 3 3 2 2 2 2 2 3 2 3 2 2 3 2 2 2 2 2 2 1 2 2 2 2 2 1 1 1 1 0
10 10 9 9 8 8 7 7 7 6 6 4 2 2 2 2 1 1 1 2 2 3 3 2 2 2 2 2 3 2 2 2 2 2 2 2 3 3 1 2 2 2 1
12 11 11 10 10 9 9 7 7 6 6 5 4 3 3 3 2 2 2 1 2 2 2 2 2 2 3 2 2 3 4 3 3 2 3 2 1 1 2 2 2 2 2
12 11 11 11 10 10 8 8 7 6 6 5 4 4 3 2 1 1 1 1 1 2 2 2 2 3 2 2 3 2 3 4 3 2 3 3 2 2 1 2 3 2 2
12 12 11 11 10 9 8 8 7 7 6 6 5 5 4 3 2 1 1 1 1 1 1 1 1 2 2 2 3 2 3 3 3 3 2 2 2 3 2 2 2 2 2
12 11 11 10 10 9 9 8 8 7 7 6 6 5 4 3 2 2 1 2 1 1 0 1 1 1 2 1 2 2 2 2 2 3 3 3 2 2 2 2 2 2 2
12 12 12 12 11 11 10 9 9 8 7 7 6 5 5 4 4 3 2 1 1 0 1 1 1 1 1 1 1 1 1 1 2 3 2 2 2 2 2 2 2 2 2
12 12 12 12 11 11 11 10 9 8 8 7 6 5 4 4 3 2 1 1 0 1 1 1 1 1 1 1 1 1 1 1 1 2 2 2 2 2 2 2 3 3 2
11 12 13 13 12 11 11 10 9 8 8 7 6 5 5 3 2 3 2 1 1 1 1 1 1 1 2 2 1 1 1 1 1 1 1 1 1 1 2 2 3 3 3
10 11 11 12 11 11 10 10 9 9 8 8 7 6 6 5 4 3 2 1 1 1 1 1 1 1 1 1 1 1 2 1 1 1 1 1 0 0 1 2 3 2 2
10 10 10 10 11 11 11 10 10 9 8 8 7 6 6 5 5 4 3 2 1 1 1 1 1 2 2 2 2 2 2 2 2 1 1 1 1 0 1 1 2 2 3
9 10 10 10 11 11 11 11 10 10 9 8 8 7 6 6 5 4 4 3 2 2 2 1 1 2 2 2 2 2 2 2 2 2 2 2 1 1 1 1 2 3 3
8 9 10 10 10 10 10 11 11 10 10 9 8 8 7 7 5 5 4 4 3 2 2 2 2 2 2 2 2 2 2 3 3 3 3 3 2 2 3 2 3 3 4
7 8 9 10 9 9 10 10 10 10 10 10 9 8 7 7 6 6 5 4 3 3 3 2 2 2 2 2 2 3 3 4 4 4 4 3 3 3 3 3 4 4 5
7 8 9 9 10 10 9 10 10 10 10 10 9 8 7 7 6 6 5 5 4 4 4 3 3 2 2 3 3 3 3 3 4 4 4 5 6 6 4 3 4 4 4
6 8 9 10 10 10 10 10 10 10 10 10 9 9 8 8 7 6 5 5 4 4 4 4 4 3 3 6 4 2 3 3 4 4 4 5 5 7 7 7 7 4 4
5 6 8 9 10 10 10 11 11 11 11 10 9 9 9 9 8 7 7 6 5 5 4 4 4 4 5 4 3 3 2 3 3 4 3 3 5 4 6 6 6 6 6
4 5 7 8 9 10 10 10 10 11 11 11 10 10 10 9 8 8 7 6 5 5 5 5 4 4 5 5 3 1 2 4 4 4 3 4 4 4 3 4 5 5 4
2 3 5 7 9 10 10 10 10 11 11 11 11 10 10 10 9 9 8 7 6 5 5 5 5 5 6 5 3 2 3 4 4 4 4 3 4 4 1 3 5 5 5
0 2 4 6 7 9 10 10 10 10 11 11 11 10 10 9 9 9 8 7 6 6 6 5 5 5 5 5 3 3 3 4 4 4 4 4 4 3 1 2 4 4 4
1 2 4 6 6 8 9 10 10 10 9 9 9 9 9 9 9 8 8 8 7 6 5 6 5 5 5 7 4 3 2 2 3 3 3 4 5 3 1 1 2 3 2
1 2 3 4 5 7 8 8 8 8 8 8 8 9 9 8 8 8 8 7 7 7 7 6 6 5 5 5 5 3 1 2 2 2 3 5 6 3 1 1 4 2 3
1 1 3 4 4 5 6 7 7 7 7 8 9 8 8 7 8 9 9 7 7 6 6 6 6 6 6 6 7 6 3 1 1 2 5 6 6 5 4 4 4 4 4
1 1 3 4 4 4 5 5 6 7 7 8 8 8 8 8 8 7 7 7 7 6 6 7 6 6 6 6 7 7 7 6 5 4 6 7 5 4 2 5 6 4 2
1 1 2 3 4 4 4 5 6 7 7 7 7 7 8 7 7 6 4 5 5 4 5 6 6 6 6 5 5 5 6 5 4 5 5 5 5 5 5 5 4 3 4
2 0 2 3 3 4 4 5 6 6 7 7 7 6 6 7 7 6 5 2 1 2 3 1 2 3 4 8 8 5 3 3 4 5 5 5 5 5 5 5 5 4 4
Wind_Direction
193 191 194 195 189 188 192 203 209 198 207 214 215 208 205 211 209 219 211 226 240 230 244 266 205 245 247 255 245 239 219 227 230 240 212 186 188 175 188 196 199 177 192
192 190 195 195 195 192 193 201 204 203 208 206 220 228 230 224 208 240 191 233 234 238 221 240 251 246 257 244 248 251 256 236 217 250 248 217 185 173 157 165 165 141 125
199 193 194 197 196 195 195 200 203 202 209 208 206 205 199 215 205 197 190 223 239 241 260 252 269 276 264 255 259 256 251 255 234 235 258 262 233 140 140 119 117 116 114
200 196 193 196 198 196 192 196 197 198 198 202 215 221 229 230 217 221 174 199 225 251 246 252 261 275 278 271 264 250 263 258 258 230 241 266 290 240 175 150 129 116 97
198 196 195 193 195 193 189 187 189 195 196 201 207 218 231 228 201 195 179 238 197 251 278 275 277 269 274 288 291 286 269 256 262 261 249 240 228 234 232 197 153 114 79
195 194 192 188 190 188 189 186 184 192 193 199 206 215 224 229 226 219 213 217 187 178 274 278 307 292 300 291 281 279 263 276 271 265 258 250 239 221 220 208 180 136 94
191 189 188 187 188 188 188 186 184 189 192 195 199 204 211 215 218 229 207 240 229 150 80 4 346 334 321 308 307 296 308 285 266 260 261 260 256 252 229 207 185 156 140
188 188 186 186 187 189 188 187 185 187 187 187 190 195 203 214 202 203 238 215 289 53 44 19 14 3 343 335 324 300 336 324 284 280 282 268 250 237 221 210 182 171 169
182 183 183 184 184 186 187 186 182 182 181 179 179 185 192 200 180 169 197 182 164 139 98 70 53 31 23 7 342 28 3 354 320 298 264 265 244 233 214 205 216 207 189
177 177 180 182 180 180 181 184 180 179 178 177 182 177 179 179 177 182 157 146 149 95 117 88 67 55 52 38 5 42 39 32 37 5 1 319 320 254 213 213 218 221 186
176 173 173 175 175 176 175 177 177 177 178 180 179 174 173 173 174 170 169 172 160 139 121 86 69 59 48 42 40 39 42 51 56 46 52 30 23 60 187 169 165 143 135
173 172 169 169 172 175 175 176 177 177 178 175 174 175 174 175 177 170 167 161 148 140 122 105 90 81 69 57 56 48 47 50 54 50 53 48 63 72 84 134 135 125 133
174 174 171 174 175 174 175 175 178 177 174 171 174 174 176 175 177 168 159 151 145 140 128 118 107 88 76 68 63 63 66 62 55 50 53 54 61 69 79 98 115 126 131
177 180 176 176 175 174 174 177 179 175 172 173 174 175 177 174 169 163 157 155 155 149 141 132 117 103 84 73 75 75 73 72 66 59 57 55 59 69 92 105 116 125 131
181 183 182 175 174 174 177 179 177 175 173 174 175 173 169 162 160 159 161 160 160 152 139 134 123 115 111 74 64 86 87 83 83 76 68 67 62 55 49 73 109 130 138
190 188 184 178 177 176 178 179 176 172 172 175 172 166 163 163 164 163 160 155 151 144 140 140 131 120 83 68 40 29 92 93 91 87 82 92 91 87 78 68 67 70 124
198 192 190 186 181 181 179 178 175 170 171 173 170 166 167 167 165 162 157 154 152 146 141 137 126 109 93 89 70 34 90 104 91 88 89 88 90 102 102 105 112 87 69
217 197 188 187 182 180 180 178 172 172 173 174 173 172 172 169 166 165 161 158 153 149 147 145 141 135 120 117 114 103 129 105 102 101 97 97 100 83 89 115 108 105 96
235 203 195 188 178 178 176 173 174 176 178 178 179 176 173 170 170 170 165 159 158 158 160 154 155 146 133 133 145 225 141 122 115 106 93 98 108 75 33 124 119 114 114
252 178 188 180 173 176 173 175 177 180 185 182 180 175 173 174 174 166 162 161 165 166 167 156 155 153 145 144 171 241 177 142 138 126 116 81 80 91 359 142 132 130 125
329 164 172 171 170 170 173 179 180 185 184 177 173 172 173 173 169 163 164 166 169 167 170 161 160 162 155 155 172 251 225 159 159 148 140 111 106 104 17 298 117 110 137
29 140 157 158 161 169 173 177 183 181 172 169 171 172 173 173 165 165 168 171 170 171 173 173 175 166 163 165 169 186 239 308 167 163 137 117 129 131 164 137 102 130 222
36 122 155 148 150 170 178 181 175 175 168 168 172 174 175 173 168 170 171 174 182 190 184 183 183 176 167 158 161 175 184 224 207 122 88 116 150 169 166 155 168 205 211
22 136 158 154 153 165 176 178 171 169 168 172 173 174 173 173 172 178 179 185 191 196 194 193 192 180 175 174 173 177 179 181 187 167 141 155 177 205 149 164 191 214 213
345 157 167 168 162 162 171 167 162 166 170 173 175 177 177 176 177 180 184 195 200 212 213 201 193 188 186 173 169 188 184 187 174 172 180 184 181 187 186 190 193 198 186
342 191 168 168 165 165 164 165 164 166 173 177 177 182 180 178 179 173 173 126 175 166 200 275 220 172 138 141 152 166 162 147 153 193 196 195 203 202 197 195 190 195 198